Regional Weather Roundup
Issued by NWS State College, PA

Home | Current Version | Previous Version | Graphics & Text | Print | Product List | Glossary On
Versions: 1 2 3 4 5 6 7 8 9 10 11 12 13 14 15 16 17 18 19 20 21 22 23 24 25 26 27 28 29 30 31 32 33 34 35 36 37 38 39 40 41 42 43 44 45 46 47 48 49 50
000
ASUS41 KCTP 170603
RWRCTP

REGIONAL WEATHER ROUNDUP
NATIONAL WEATHER SERVICE STATE COLLEGE PA
200 AM EDT WED SEP 17 2014

Note: "fair" indicates few or no clouds below 12,000 feet with no
significant weather and/or obstructions to visibility.

* = STATION THAT DOES NOT REPORT PRECIPITATION /E.G. RAIN...SNOW...ETC/
    THUNDER OR FOG.

PAZ002>004-007>009-013>016-020>023-029>032-170700-
WESTERN PENNSYLVANIA

CITY           SKY/WX    TMP DP  RH WIND       PRES   REMARKS
ERIE           CLEAR     50  45  83 S6        30.07S
MEADVILLE      CLEAR     48  45  89 S5        30.08S
FRANKLIN*      CLOUDY    48  45  87 CALM      30.10S
NEW CASTLE     MOCLDY    49  49 100 CALM      30.10S
BEAVER COUNTY  NOT AVBL
BUTLER*        CLOUDY    48  46  93 CALM      30.11R
PITTSBURGH INT CLOUDY    53  50  89 CALM      30.09S
PITTSBURGH     CLEAR     54  47  77 NE3       30.08S
INDIANA*       CLOUDY    50  48  93 CALM      30.12F
LATROBE        PTCLDY    46  46 100 CALM      30.10R FOG
WASHINGTON CO* CLOUDY    43  41  93 CALM      30.09S VSB<1/4
$$

PAZ004>006-010>012-017>019-024>028-033>037-041-042-045-046-049>053-170700-
CENTRAL PENNSYLVANIA

CITY           SKY/WX    TMP DP  RH WIND       PRES   REMARKS
BRADFORD       CLEAR     38  35  89 CALM      30.08S
DUBOIS         CLOUDY    50  45  83 CALM      30.08S
CLEARFIELD     CLOUDY    47  45  93 CALM      30.09F
JOHNSTOWN      CLEAR     48  45  89 CALM      30.09S
ALTOONA        PTCLDY    46  45  96 CALM      30.09S
STATE COLLEGE  MOCLDY    51  48  90 CALM      30.08S
WILLIAMSPORT   MOCLDY    50  46  86 CALM      30.07R
SELINSGROVE    PTCLDY    49  47  93 CALM      30.07S FOG
FT INDIANTOWN  CLOUDY    52  52 100 E1        30.06S
CAPITAL CITY   CLEAR     52  49  89 SW3       30.06R
HARRISBURG     PTCLDY    53  50  89 CALM      30.05R
YORK           FOG       46  44  93 CALM      30.06R VSB 1
$$

PAZ038>040-043-044-047-048-054-055-060>062-067>071-170700-
EASTERN PENNSYLVANIA

CITY           SKY/WX    TMP DP  RH WIND       PRES   REMARKS
SCRANTON       CLEAR     47  44  90 E5        30.07R
MOUNT POCONO   CLEAR     42  39  89 CALM      30.06F
ALLENTOWN      MOCLDY    50  47  89 CALM      30.05S
QUAKERTOWN*    PTCLDY    48  46  93 CALM      30.06S
READING        CLOUDY    53  50  89 CALM      30.04S
LANCASTER      NOT AVBL
COATESVILLE    CLOUDY    54  50  87 CALM      30.06S
POTTSTOWN      PTCLDY    50  48  93 CALM      30.06S
BLUE BELL      CLEAR     50  48  93 CALM      30.04S
DOYLESTOWN     CLEAR     51  32  48 CALM      30.04S
WILLOW GROVE   NOT AVBL
NORTH PHILA    CLEAR     56  49  77 CALM      30.05F
PHILADELPHIA   CLEAR     59  51  75 CALM      30.04S
$$



USA.gov is the U.S. government's official web portal to all federal, state and local government web resources and services.